Wind_Speed
29 29 31 33 34 33 28 25 20 13 13 14 13 12 12 10 8 7 6 3 2 1 2 3 4 3 4 6 8 10 11 10 10 11 12 12 12 13 14 17 22 24 25 26 26 26 25 24 24 23 21 19 18 17 18 18 17 16 16 16 15 14 14 15 17 16 16 15 14 13 12 12 11 11 11 10 10 10 10 9 9 9 9 8 8 9
29 31 33 34 33 30 25 21 19 15 14 14 13 11 11 12 9 7 7 5 3 2 2 3 4 3 3 4 7 11 12 11 10 11 11 11 11 12 13 15 19 23 25 27 28 28 27 26 26 25 24 21 19 17 17 18 18 17 17 17 16 15 13 14 15 16 15 14 13 12 12 12 11 11 12 11 11 11 10 9 9 9 9 9 9 8
30 32 33 32 29 26 23 19 18 18 16 13 13 12 11 11 10 7 6 6 2 1 2 5 6 5 4 5 6 9 10 9 10 11 11 12 12 12 12 14 17 21 26 28 29 29 29 28 28 27 26 23 21 18 17 17 18 18 17 17 17 16 14 13 15 15 15 15 14 14 14 13 13 13 13 12 12 11 10 9 9 8 9 9 8 9
29 31 33 29 26 25 24 20 18 18 17 17 16 14 12 12 10 6 6 7 4 3 4 8 10 9 8 8 8 8 8 8 10 12 13 14 14 13 13 14 15 19 24 28 30 30 30 29 29 29 27 25 23 21 19 18 18 18 17 16 16 16 15 14 14 15 16 17 17 16 16 15 14 14 14 13 12 11 10 9 8 8 9 8 8 8
25 25 28 28 24 25 24 20 20 18 16 18 20 17 15 14 11 7 6 7 6 6 6 8 11 9 7 7 8 7 8 8 10 12 13 14 15 14 15 16 16 17 20 25 29 30 31 31 30 29 28 26 25 23 21 19 18 17 17 16 16 16 15 15 15 16 17 17 18 18 16 15 13 12 12 11 11 10 9 8 8 8 8 8 8 8
22 17 20 25 25 25 24 20 20 19 15 16 21 21 18 15 12 10 8 6 6 5 4 5 6 4 1 2 4 5 8 9 10 12 12 13 15 16 16 15 16 16 18 22 26 29 31 31 31 30 29 28 26 24 22 20 18 17 17 17 16 16 16 16 16 17 17 17 18 17 16 13 11 10 9 9 10 9 9 8 8 8 8 8 8 8
21 15 12 20 25 25 24 21 20 20 16 15 19 21 19 17 16 14 10 6 5 4 3 4 4 4 5 5 4 3 7 9 11 11 11 13 15 16 15 15 15 15 17 20 24 28 30 31 31 31 30 29 27 25 23 22 21 19 19 18 17 16 16 16 17 18 18 18 18 17 15 14 12 10 9 9 10 10 10 9 8 7 8 8 8 7
21 19 13 14 20 24 24 22 21 19 16 16 19 19 17 18 18 17 13 9 7 5 5 7 5 5 8 7 4 4 7 9 11 11 10 12 14 15 15 15 15 14 15 18 22 26 29 32 32 32 31 29 27 25 24 24 23 21 20 19 18 17 16 16 17 18 18 18 17 17 16 15 14 12 11 11 11 11 10 9 8 7 7 7 7 6
18 22 19 15 15 18 21 22 21 19 18 18 18 16 13 14 15 15 14 12 9 7 7 8 5 3 6 6 5 6 7 7 9 10 11 11 13 14 14 14 15 15 14 17 20 23 26 30 32 33 32 30 28 26 24 23 23 22 21 20 19 19 18 17 17 18 18 18 17 17 17 16 15 14 13 13 13 12 12 10 9 8 7 7 6 6
11 17 19 18 16 15 14 16 19 19 18 17 15 13 11 10 9 10 11 11 7 4 7 8 5 4 3 5 6 7 6 6 7 9 11 12 13 14 14 14 14 15 15 16 19 21 23 26 29 31 31 30 29 27 25 24 23 24 23 22 21 20 20 19 18 18 19 18 18 19 18 17 16 16 15 15 14 14 13 11 10 8 7 6 6 6
8 11 13 16 19 18 14 13 16 17 16 14 12 10 9 8 8 9 10 8 4 3 8 9 6 6 2 4 4 4 6 8 8 8 8 9 11 13 15 16 16 16 16 16 18 19 21 22 26 29 31 30 30 29 27 26 25 24 24 24 22 21 21 20 19 19 19 19 19 19 19 19 18 17 17 16 15 14 13 12 11 9 8 7 6 6
10 12 11 12 15 16 14 13 13 15 15 14 12 10 8 6 7 7 8 8 5 4 7 7 6 8 3 4 4 3 6 10 10 9 8 6 7 10 13 17 18 18 17 17 17 19 20 22 24 28 30 31 31 30 29 28 26 25 25 24 24 23 22 22 21 20 19 19 19 20 20 20 19 19 19 17 16 15 14 13 12 11 10 8 7 6
11 10 9 10 11 12 12 12 12 14 16 17 16 14 9 6 6 6 5 5 5 5 6 7 8 7 4 4 3 3 6 9 11 10 9 8 7 8 10 13 17 20 20 20 19 19 20 22 23 25 29 31 32 32 31 30 28 27 26 25 25 25 23 22 22 21 20 19 19 19 20 21 21 20 20 19 18 17 15 14 13 12 11 9 7 6
10 7 8 9 9 9 10 12 14 15 16 18 18 17 12 6 6 7 4 3 4 7 8 8 7 6 6 5 2 1 3 7 10 9 8 8 8 8 9 11 14 17 20 21 22 21 21 21 21 23 25 28 30 31 31 31 30 29 28 27 26 25 24 23 23 22 21 20 19 19 20 21 21 21 20 20 19 18 17 16 14 13 11 10 9 7
10 6 7 9 8 8 9 12 13 14 15 16 17 17 15 9 5 5 5 4 5 6 7 9 6 5 8 8 6 4 1 4 6 8 8 8 9 9 9 11 13 14 16 19 21 22 22 21 21 22 22 24 26 28 30 31 31 30 30 28 27 26 25 25 23 23 22 21 20 19 19 20 21 21 21 21 20 20 19 17 15 13 12 11 10 10
9 8 8 9 8 6 7 10 12 12 12 14 16 16 16 14 8 4 6 9 7 7 7 10 6 2 9 13 8 5 1 1 2 6 8 9 9 10 9 9 11 13 13 15 18 20 21 22 22 21 21 22 24 25 27 30 30 31 30 29 28 27 26 25 24 23 22 22 21 20 19 19 20 21 22 22 22 21 20 18 17 15 13 12 12 11
7 9 10 10 8 6 5 7 11 11 11 12 14 16 16 16 12 6 6 9 10 6 7 10 5 1 7 13 10 4 3 4 5 5 7 8 10 11 10 8 9 11 13 14 16 17 19 21 22 22 21 21 22 24 26 28 29 30 30 29 29 28 27 26 25 24 23 22 22 21 21 19 19 20 22 23 23 22 21 20 18 17 15 14 13 13
9 9 10 10 8 7 7 6 8 10 12 11 12 16 16 14 13 11 5 6 8 6 6 7 4 5 3 6 8 9 10 9 8 6 5 6 8 10 9 9 9 10 11 13 15 16 18 20 21 21 21 20 20 22 23 24 26 28 29 30 29 29 28 27 26 25 24 23 22 22 22 21 19 18 20 22 24 24 23 22 20 18 17 15 14 14
11 9 8 9 7 7 8 7 5 8 12 12 12 16 14 9 11 13 6 4 7 6 4 5 5 7 7 7 7 5 7 9 8 6 5 5 7 8 8 9 9 10 11 13 15 17 18 19 20 21 21 21 20 20 21 21 23 25 28 30 30 30 29 28 27 26 25 24 23 22 21 21 21 19 19 21 24 25 25 24 22 20 18 17 16 15
10 7 5 6 7 7 8 7 6 6 10 11 11 15 15 8 10 14 9 5 5 5 4 4 3 5 9 11 10 9 8 7 7 6 6 7 7 8 7 9 10 11 12 13 14 15 16 17 18 19 21 21 21 20 20 21 22 24 26 29 30 30 30 29 29 27 26 25 23 22 21 21 21 22 21 21 22 25 26 25 24 22 21 19 18 17
8 7 5 4 5 8 9 10 9 7 6 8 9 13 13 9 10 14 11 7 5 3 4 5 4 3 7 10 9 9 9 8 9 8 6 7 8 9 9 9 10 11 13 13 13 14 14 14 14 16 18 19 20 21 21 22 22 23 25 28 29 30 30 31 30 29 28 26 24 23 22 21 21 22 22 22 22 23 25 26 26 24 23 22 21 20
8 8 8 7 8 11 13 13 12 11 7 6 8 10 10 10 11 10 7 7 6 4 4 5 5 4 5 9 10 9 9 8 8 9 8 8 9 10 11 11 11 13 13 12 13 15 15 15 14 13 15 17 18 19 21 23 23 23 24 26 28 30 31 31 31 30 29 28 26 25 23 23 22 22 23 23 23 23 24 25 26 26 25 24 24 23
9 10 11 13 13 14 13 11 11 11 10 7 7 8 8 9 11 6 4 7 7 5 7 6 5 5 5 7 9 9 9 8 7 8 9 10 11 12 12 12 12 13 13 12 12 15 17 17 16 14 15 17 18 18 19 21 23 23 23 24 26 29 30 31 30 30 30 29 28 27 26 25 24 23 23 24 24 24 23 24 25 26 26 25 25 24
8 9 12 14 12 10 9 7 7 8 8 7 8 8 7 7 8 5 7 11 8 6 8 6 4 5 6 5 6 7 8 8 7 7 8 9 11 12 13 13 12 13 13 13 13 15 17 18 18 18 17 18 20 20 19 19 20 22 23 24 25 26 28 29 30 30 30 30 29 29 28 27 26 25 25 24 24 24 24 24 25 26 26 26 26 25
4 6 9 10 7 5 4 3 3 5 5 6 8 9 7 6 6 6 9 11 7 6 8 5 4 7 8 6 5 6 6 6 5 5 7 9 10 11 12 13 12 13 13 13 14 16 17 18 19 19 20 20 21 22 22 21 20 20 21 23 24 24 25 27 29 30 30 30 30 30 30 29 28 27 26 25 24 24 24 25 26 26 26 26 26 26
2 4 5 5 3 3 3 3 4 6 5 4 5 6 6 5 5 5 6 6 4 6 8 6 7 11 12 9 7 7 7 6 5 3 5 7 8 9 10 11 11 11 12 12 14 15 16 18 18 19 20 21 22 23 24 24 22 21 20 21 23 23 24 26 27 29 30 30 31 31 31 30 29 28 27 26 25 25 25 26 27 27 27 27 26 26
4 5 6 6 6 5 5 6 8 8 5 3 2 1 1 2 2 3 4 4 4 7 9 9 9 12 13 11 9 7 7 7 5 3 3 4 6 7 8 8 9 10 10 10 12 14 15 16 17 17 18 19 21 23 25 26 25 23 22 21 22 23 24 25 26 28 29 30 30 31 31 31 30 29 28 27 27 26 26 26 27 28 28 28 28 27
4 6 6 6 7 8 9 9 10 9 8 8 7 6 5 5 3 0 1 2 4 6 7 8 9 9 11 12 9 6 5 6 6 4 3 3 6 7 7 8 9 11 10 9 9 12 14 15 16 17 17 17 18 20 23 26 27 27 25 24 24 24 24 25 26 28 29 29 30 31 31 31 31 30 29 29 28 28 27 27 27 28 29 29 30 29
3 5 6 5 6 7 9 9 10 10 11 11 11 11 10 9 7 5 4 4 3 3 4 6 6 6 9 11 8 6 4 2 5 5 5 5 5 6 7 6 8 9 10 10 9 9 12 14 16 16 16 17 17 18 19 22 26 28 28 26 26 26 26 26 26 27 28 29 31 31 30 30 31 31 30 30 30 29 29 28 28 27 28 29 30 31
3 4 5 4 5 5 5 6 6 7 9 9 10 11 12 12 11 10 8 8 7 5 5 7 8 8 9 10 9 6 4 1 3 6 7 5 4 4 5 5 6 7 8 8 9 9 10 12 14 14 15 16 17 17 18 20 23 26 28 27 27 26 26 26 26 27 27 29 30 30 30 30 30 30 31 31 31 30 30 30 29 28 28 28 29 30
3 4 4 3 3 3 3 3 3 4 5 6 7 9 10 11 11 10 10 11 10 9 9 9 11 12 11 10 8 7 5 3 3 4 5 5 4 3 3 4 5 7 7 5 5 8 10 10 11 12 13 15 16 17 17 18 20 24 26 28 28 27 27 27 27 27 28 29 29 29 29 29 30 30 30 31 31 31 31 31 31 30 29 29 29 29
4 5 5 3 3 3 3 2 3 4 6 7 7 8 9 9 8 9 12 13 11 10 10 9 11 14 14 11 10 9 7 6 5 5 5 6 5 3 2 3 3 4 5 5 5 6 8 9 10 11 11 13 15 16 17 18 19 21 24 26 27 27 27 28 29 29 29 28 28 28 28 28 29 30 30 30 31 31 31 31 32 32 31 31 30 30
4 5 4 3 2 3 3 2 3 5 5 5 7 7 6 8 9 10 12 13 12 11 10 10 13 16 16 14 14 12 11 10 9 8 7 6 5 4 2 1 2 3 4 7 7 5 6 9 11 12 12 13 14 15 16 17 18 20 21 23 25 26 26 27 28 29 29 29 28 27 27 27 28 29 30 31 31 32 32 33 33 33 33 32 32 31
4 4 4 3 3 3 3 2 3 4 2 3 4 3 3 6 9 11 12 12 11 12 11 12 14 16 16 16 15 14 13 13 13 12 11 9 8 8 6 4 2 1 3 6 8 8 5 6 9 12 13 14 15 16 16 16 17 19 21 22 23 24 25 26 27 27 28 29 29 28 28 28 28 29 29 30 32 33 33 34 34 34 33 33 33 33
3 3 4 3 3 3 3 2 2 2 3 6 5 4 4 5 7 10 12 13 13 13 12 13 14 15 16 17 16 15 14 14 14 14 14 13 11 10 9 8 6 4 2 2 5 8 8 5 5 8 11 14 16 17 17 18 19 19 20 22 23 24 25 26 28 29 29 29 30 31 31 30 29 29 30 30 32 33 34 34 35 35 35 35 35 34
3 3 3 3 3 3 2 1 2 1 2 6 7 6 6 7 8 10 12 14 15 14 13 12 13 15 16 16 15 15 15 15 14 15 16 15 14 11 10 10 10 9 8 4 2 4 7 7 5 5 6 10 14 15 17 18 19 20 21 22 23 25 27 26 25 27 28 28 29 30 31 31 30 30 30 30 31 32 32 34 35 35 35 36 36 36
3 2 2 1 2 2 1 3 5 5 4 7 10 9 9 10 10 11 12 15 16 16 14 14 14 15 16 15 15 14 15 15 14 14 15 16 15 14 13 12 13 12 12 11 8 5 4 6 7 6 4 5 7 10 11 13 17 19 21 23 24 25 25 24 22 23 24 25 26 28 30 31 31 31 30 30 31 30 30 31 33 35 36 36 36 37
4 3 2 2 3 4 3 4 5 4 3 7 11 13 13 13 14 14 15 17 19 18 17 17 17 17 16 16 16 16 16 16 15 14 14 14 15 15 15 15 15 15 14 14 12 10 8 6 6 6 6 4 3 3 5 7 11 14 15 20 24 23 22 22 23 23 24 25 26 27 29 29 32 33 31 30 30 30 30 29 29 31 35 37 37 36
5 3 3 4 5 6 6 4 4 4 5 7 8 10 11 12 14 14 14 18 23 22 21 20 20 20 19 19 18 19 19 19 19 17 16 15 15 16 16 17 18 18 17 16 15 14 12 10 8 6 7 7 3 2 3 4 7 9 9 11 16 18 18 19 21 23 24 25 25 28 28 28 30 33 33 32 31 31 32 31 29 30 33 34 36 36
6 5 5 6 7 8 8 7 7 9 10 9 8 8 9 10 10 10 8 12 18 19 19 20 21 22 23 23 22 22 23 24 24 22 20 18 18 19 19 19 19 20 20 20 19 17 15 14 13 11 11 10 7 4 3 3 4 6 5 6 10 13 14 15 18 20 22 22 24 27 29 29 30 32 33 33 32 32 33 34 33 34 33 32 34 36
8 7 8 9 9 10 10 10 10 12 14 13 12 12 12 11 11 11 11 12 13 11 11 14 16 18 22 24 25 26 27 27 27 26 25 23 22 21 21 21 21 21 22 22 22 22 19 17 17 16 15 14 12 9 7 6 3 3 3 3 5 7 10 13 16 18 19 20 22 25 29 31 30 31 32 33 33 32 33 35 36 38 37 32 30 31
8 8 9 11 11 11 11 10 10 13 14 13 14 17 17 15 15 17 19 20 18 15 15 15 16 18 19 21 24 26 28 29 30 30 29 29 27 25 24 24 24 23 23 24 24 25 24 22 20 19 19 19 18 15 13 11 8 5 3 3 4 4 6 8 11 14 16 19 21 23 26 29 31 31 31 31 31 32 32 33 35 37 37 35 30 28
9 8 8 10 10 10 10 9 7 8 8 8 10 14 18 19 20 22 23 23 22 22 22 22 22 24 24 25 25 26 27 29 30 31 32 32 31 30 29 28 27 26 25 25 24 25 27 26 24 23 21 21 21 21 19 17 14 10 7 6 6 5 4 5 6 6 9 15 20 22 23 25 28 30 29 28 28 29 30 31 33 34 35 35 34 33
11 10 10 10 9 9 9 8 7 8 10 10 10 12 15 18 20 21 22 22 22 23 23 23 24 25 27 29 30 30 30 31 31 32 34 34 34 34 33 32 32 30 29 27 26 26 27 28 27 26 24 22 23 24 24 23 21 17 13 11 9 8 7 6 4 2 3 9 15 19 21 23 24 26 27 27 28 27 26 27 30 31 31 33 33 34
11 11 11 11 11 11 11 11 13 14 14 13 13 13 15 18 21 22 23 23 24 23 23 24 24 25 27 29 30 31 33 33 34 35 36 36 36 36 36 36 35 35 34 32 30 30 30 30 29 28 27 26 24 24 25 26 25 23 21 17 13 10 10 10 9 5 3 6 10 14 18 23 24 24 24 25 27 27 24 23 24 25 27 29 31 32
12 12 12 12 13 15 14 13 13 13 13 13 14 14 15 17 19 22 24 25 25 25 25 25 24 24 26 27 29 30 31 33 35 36 37 38 38 39 39 38 38 38 38 37 36 34 34 33 32 31 30 29 27 26 26 27 27 27 27 24 21 17 15 14 14 11 7 7 8 11 14 19 21 22 22 23 25 26 24 22 21 21 23 27 30 31
14 14 15 16 16 16 14 11 10 12 12 14 16 15 15 16 17 18 20 22 24 24 25 25 25 25 25 26 27 29 30 31 33 35 36 37 39 40 40 40 40 41 41 40 39 39 39 38 36 34 33 32 31 30 29 28 28 29 30 30 28 25 22 18 17 17 14 11 9 9 12 16 18 18 19 22 24 25 24 23 23 24 25 26 27 27
13 14 15 16 17 17 16 13 13 15 16 16 16 15 15 15 17 17 18 20 21 23 24 25 26 26 26 26 27 28 29 30 32 34 35 37 38 39 41 41 41 42 42 42 41 41 42 43 42 40 38 36 36 35 34 32 31 31 32 33 33 32 29 24 20 19 19 18 15 11 10 12 16 18 16 15 18 23 24 24 26 29 29 26 24 23
15 16 17 18 20 20 18 14 12 14 16 15 14 14 15 16 16 17 19 19 21 22 23 24 25 25 25 25 26 28 28 28 29 31 34 36 37 38 39 41 42 42 42 43 43 42 42 44 45 45 43 39 38 39 38 37 35 34 34 35 36 36 35 32 28 24 22 21 20 17 13 11 15 19 18 14 12 15 19 22 25 27 28 26 24 23
17 17 17 18 20 20 15 10 10 15 16 15 15 15 16 16 17 17 19 20 21 22 23 23 24 24 25 25 26 28 29 28 28 29 31 33 34 35 37 39 42 43 43 43 44 44 43 43 44 46 45 42 39 39 40 39 38 37 36 36 37 38 39 38 36 32 28 26 23 21 19 16 15 18 22 21 15 11 13 17 21 23 24 23 24 25
15 15 16 16 18 19 16 12 14 17 18 17 17 17 16 17 17 17 18 19 20 21 23 23 24 24 25 26 26 28 30 30 30 30 31 31 31 32 34 36 39 42 43 44 45 45 44 43 43 44 45 43 40 39 40 40 38 37 37 37 37 38 40 42 42 39 36 33 29 26 24 21 18 18 21 24 23 17 14 15 17 20 23 23 22 24
Wind_Direction
195 194 195 197 197 194 191 192 190 173 171 187 194 196 199 202 202 194 187 184 196 229 311 302 300 302 276 260 255 258 255 251 249 244 238 235 231 222 209 199 194 193 193 194 197 198 197 197 195 194 191 189 188 187 185 185 185 181 180 184 187 187 183 181 183 184 183 180 176 174 171 166 165 169 170 172 179 179 175 174 172 167 165 165 165 164
198 201 203 203 200 194 190 190 193 188 177 183 194 197 202 204 196 182 187 205 253 296 349 322 301 314 307 267 243 245 249 249 254 258 258 255 245 232 215 202 196 193 191 194 196 197 198 197 198 197 195 194 192 192 190 187 186 184 183 185 189 191 188 184 184 183 185 185 180 179 180 175 172 175 174 175 181 183 180 178 175 170 166 165 166 164
200 206 209 208 203 194 191 192 194 200 200 198 202 204 208 207 195 193 212 220 243 292 345 323 309 312 305 283 257 251 252 248 249 256 263 266 259 245 228 209 198 195 194 195 196 197 198 198 199 200 199 197 195 195 194 191 190 188 186 186 190 191 189 187 185 181 182 186 185 183 186 182 178 178 178 179 181 183 183 180 176 173 170 168 166 162
200 208 210 209 207 197 193 196 199 205 212 213 212 212 217 210 194 199 227 223 228 259 298 312 308 303 294 283 275 266 254 237 235 241 245 253 256 251 241 225 208 199 197 197 197 198 199 200 200 201 201 200 199 198 197 195 194 193 190 189 190 193 191 188 187 183 182 186 189 188 189 187 183 183 183 181 182 183 184 183 180 180 176 172 168 163
204 212 211 208 207 199 195 198 202 207 217 221 220 218 220 214 203 208 224 233 254 271 292 310 307 300 293 282 274 257 245 236 231 233 232 237 245 247 242 232 220 209 201 199 199 199 201 202 203 203 203 202 202 202 201 199 197 195 194 193 191 193 195 191 188 188 187 188 191 192 192 191 187 186 186 184 183 183 182 184 187 186 182 177 170 163
208 215 215 210 207 201 201 204 204 208 220 229 228 225 223 220 219 224 231 257 280 275 291 324 314 292 266 312 300 256 247 246 237 237 233 229 236 242 241 233 225 217 208 203 201 200 202 203 204 205 205 205 204 204 204 203 201 197 195 195 195 194 196 195 191 191 192 191 194 195 194 194 190 186 185 184 184 183 182 185 190 189 185 179 169 162
205 204 207 210 210 206 206 210 209 211 221 233 233 229 230 231 229 231 239 257 270 249 264 305 305 291 288 303 318 261 243 242 239 239 236 230 234 240 243 238 231 223 213 207 204 202 202 204 206 207 207 208 206 204 204 205 204 202 197 195 197 197 198 200 196 194 195 194 195 196 194 194 191 185 184 186 186 188 187 187 189 190 187 181 172 164
207 199 188 194 207 212 213 216 215 213 221 233 233 231 235 238 232 231 239 248 255 258 274 283 281 290 292 293 292 261 245 242 240 237 234 233 234 237 243 242 236 229 218 211 208 205 205 205 206 208 209 210 209 207 205 205 205 204 201 196 196 199 200 204 203 199 197 197 196 197 198 196 191 186 189 190 189 191 191 188 189 188 187 183 178 171
213 207 200 189 193 209 217 222 221 218 224 233 236 234 233 235 231 231 236 243 256 270 272 268 253 248 280 293 295 275 255 253 259 255 245 238 235 233 238 242 238 234 223 214 212 209 208 208 207 207 209 210 211 211 209 206 205 206 205 200 196 198 201 205 209 205 199 197 197 199 200 199 194 192 195 194 191 193 192 189 188 186 185 184 181 176
219 215 215 210 208 216 223 227 226 223 227 234 238 235 221 217 215 214 221 228 241 257 247 245 230 218 271 316 304 278 263 277 293 288 271 256 247 238 235 238 239 238 230 217 213 212 209 208 209 207 207 208 210 212 212 209 207 207 207 204 199 197 200 204 210 210 204 199 197 199 200 202 199 198 200 200 197 195 193 190 187 184 184 184 182 175
198 201 208 214 218 226 231 228 226 223 224 228 228 218 210 213 208 205 212 215 218 225 228 234 222 207 229 8 338 288 299 313 311 304 293 272 258 249 241 236 235 236 235 225 217 214 210 205 206 207 206 206 208 210 212 212 210 209 209 207 203 199 198 202 208 213 210 203 198 197 199 204 204 202 203 204 202 199 197 193 190 187 185 186 183 173
172 178 185 195 206 218 224 219 217 216 212 209 206 195 191 200 198 203 210 210 211 205 209 214 206 204 204 48 43 346 315 308 299 291 283 268 257 254 249 244 239 235 234 232 225 219 215 208 203 205 205 204 205 208 209 211 212 211 210 208 206 202 199 201 206 211 213 208 200 196 197 203 207 208 207 205 204 202 200 197 194 192 188 187 184 174
173 182 189 188 190 197 205 204 202 204 202 202 203 198 189 176 177 189 190 193 204 199 194 193 191 197 176 93 54 342 311 299 294 290 279 266 259 254 250 248 246 243 238 235 230 223 221 216 208 205 206 205 204 206 208 210 211 212 212 211 209 206 201 201 204 209 213 211 204 198 198 201 206 210 210 207 205 203 201 199 197 195 192 190 187 179
171 183 196 196 198 199 200 197 195 197 198 199 198 195 191 174 179 190 173 165 194 202 206 192 182 183 158 126 86 6 309 307 298 288 276 270 269 264 251 238 238 240 238 236 234 229 225 222 216 209 206 207 206 206 206 208 211 212 213 213 212 209 205 202 204 207 211 212 208 202 200 201 205 210 212 212 208 205 203 201 197 194 194 193 189 186
173 162 175 188 199 208 207 200 198 197 197 201 200 199 199 196 196 188 180 183 157 157 183 184 184 186 164 146 103 83 13 332 319 296 280 269 268 265 250 231 226 228 229 231 232 232 229 225 223 217 210 207 207 207 207 208 211 212 213 213 212 212 209 205 204 206 209 211 210 207 203 202 204 208 211 213 213 209 206 203 198 194 194 195 193 193
169 141 141 164 177 191 201 198 198 194 192 200 202 203 205 206 208 186 181 189 161 131 159 178 188 203 176 172 144 94 20 294 307 304 293 276 267 260 248 230 221 219 220 221 221 225 228 227 226 224 218 211 207 207 208 208 211 213 213 212 211 214 214 209 206 206 208 210 211 210 206 203 203 205 208 211 214 213 210 206 202 198 196 196 198 200
151 135 134 143 147 151 170 190 196 192 192 195 194 199 205 205 206 196 170 178 177 174 178 178 183 170 182 191 189 192 249 239 233 264 286 278 263 257 252 236 221 215 211 209 208 212 219 223 226 227 225 218 210 208 208 208 210 213 214 213 211 213 215 213 210 208 209 210 211 211 210 208 204 204 206 209 213 216 214 210 205 203 201 199 199 202
150 137 132 135 135 133 135 157 185 191 196 195 191 198 201 200 204 204 177 162 183 198 179 160 115 68 134 218 230 228 236 238 233 236 260 274 260 256 255 244 233 223 211 206 203 203 207 213 219 225 228 226 218 212 210 209 211 213 215 215 213 213 216 216 213 210 210 211 211 211 212 212 209 205 204 207 211 215 217 214 210 207 206 205 204 206
152 142 133 133 132 135 135 134 144 171 188 196 198 196 190 186 195 196 189 170 186 193 161 138 94 62 39 350 321 284 260 252 245 236 238 249 250 252 254 247 240 227 216 210 205 202 202 206 211 218 225 228 226 219 213 210 211 213 215 216 216 216 217 218 218 216 212 211 212 212 212 213 213 210 207 206 209 214 217 217 214 212 210 210 210 210
150 147 139 131 129 143 150 135 107 126 170 186 193 188 185 188 188 187 191 200 192 180 159 154 125 62 33 14 356 346 336 306 286 268 246 242 246 249 251 248 243 232 222 215 207 202 201 203 208 215 222 228 230 227 221 216 212 211 213 215 217 217 217 218 219 219 216 214 213 213 212 213 214 214 212 209 209 213 217 219 218 217 215 214 214 214
137 133 121 127 149 146 127 109 94 90 137 171 176 177 182 185 175 177 187 200 200 177 170 174 145 79 49 43 23 3 1 342 316 302 279 260 255 258 258 250 243 239 233 225 215 207 203 203 205 211 219 227 231 230 227 224 217 212 212 213 215 217 217 218 219 219 218 216 215 214 214 214 215 216 216 213 211 212 215 218 219 220 219 219 218 217
114 117 113 114 130 128 112 103 98 86 94 140 155 163 172 170 166 173 183 189 192 176 174 175 135 100 75 63 44 18 9 355 329 317 305 284 268 265 265 259 250 245 243 237 223 211 206 204 202 204 207 214 223 227 226 226 221 216 213 211 213 215 216 218 219 220 219 218 217 216 215 216 216 217 218 217 215 213 213 216 218 220 221 223 223 222
97 105 113 112 113 117 114 111 106 91 86 101 124 142 157 163 170 183 181 168 166 155 155 146 118 119 110 79 54 30 15 1 342 322 310 297 283 273 268 266 261 254 251 245 228 213 207 201 197 197 197 202 214 221 224 226 224 221 217 213 213 214 215 217 219 220 221 221 221 219 218 218 218 218 219 220 219 216 214 215 217 219 222 224 226 227
96 98 107 110 111 116 119 118 112 101 95 96 105 117 120 138 158 168 166 160 143 131 149 138 120 145 140 103 69 46 27 8 349 322 308 299 288 280 273 268 264 259 254 246 232 220 212 203 196 193 190 194 206 216 221 224 225 224 222 218 215 213 214 217 218 220 221 221 222 222 222 221 220 220 221 221 222 220 218 217 217 219 221 223 227 229
110 111 113 117 118 124 135 142 130 125 122 109 99 94 90 109 133 135 152 157 140 136 161 152 130 151 150 133 107 79 53 26 3 329 308 298 289 283 277 272 266 260 253 244 234 224 217 209 202 198 193 191 197 208 217 221 224 225 223 221 219 215 214 215 217 219 221 222 223 224 224 223 222 222 221 222 223 222 221 220 219 220 221 223 226 229
188 166 153 158 173 166 169 178 167 167 163 133 101 84 83 102 116 118 139 147 129 132 142 121 119 148 156 150 133 112 88 65 43 1 326 313 304 293 282 276 271 262 253 245 239 232 225 217 209 202 197 193 192 200 210 219 224 226 223 222 222 218 215 214 216 218 220 222 224 224 224 224 224 223 222 222 223 223 223 223 222 222 222 224 226 227
208 202 198 201 208 202 189 176 173 181 190 193 200 239 60 93 89 97 117 116 111 122 124 118 129 152 163 162 154 135 102 78 71 60 16 356 345 325 302 291 284 274 263 253 248 245 239 228 216 208 202 198 196 198 205 213 219 222 220 219 221 220 217 214 214 216 219 221 223 225 225 225 225 225 224 224 224 224 224 225 224 224 224 224 226 226
183 183 178 184 192 191 190 188 190 202 219 232 238 251 267 276 284 253 112 110 127 128 134 144 147 158 173 177 175 159 115 72 61 72 78 47 14 350 333 318 305 295 281 263 251 248 247 240 226 216 208 205 203 203 205 210 214 218 218 217 219 220 218 216 215 215 216 219 222 224 225 225 226 227 227 227 227 226 226 226 226 226 225 226 227 227
173 163 157 162 170 177 188 198 207 219 229 237 242 247 255 264 267 257 252 250 213 155 154 179 185 189 191 192 193 185 162 84 47 50 57 47 20 360 350 328 311 312 304 285 268 252 245 242 233 222 215 212 210 208 209 211 214 218 219 218 217 217 218 218 217 216 216 218 220 222 224 226 228 229 229 229 229 228 227 227 228 228 227 227 227 229
159 151 151 156 164 173 187 201 217 229 236 239 242 246 249 254 257 254 250 251 242 217 197 216 239 245 224 211 210 210 209 230 25 33 33 28 13 2 354 329 306 312 315 301 286 275 260 244 234 226 219 217 216 214 214 215 216 217 219 221 220 218 218 218 217 217 218 218 218 219 222 225 228 230 231 231 231 230 229 229 229 229 229 228 228 229
172 169 167 161 166 185 201 218 239 251 255 252 245 241 242 246 252 253 247 246 246 237 227 236 256 260 248 231 223 228 245 272 326 3 359 347 344 341 337 325 305 296 296 287 271 273 272 261 245 233 225 220 219 220 218 218 218 217 217 220 222 222 222 219 216 215 216 217 216 218 220 223 225 228 230 231 232 231 231 231 231 230 230 230 229 229
173 172 175 171 166 193 215 236 270 282 288 282 268 254 244 240 241 245 245 244 244 242 234 232 246 256 256 253 249 250 258 272 293 307 300 305 318 317 307 314 303 284 274 262 241 230 233 240 246 244 234 226 223 222 220 219 219 220 218 219 222 224 225 223 219 215 213 213 215 216 218 220 223 226 228 231 233 234 234 234 233 232 231 231 231 230
173 174 189 190 165 197 231 270 296 299 303 289 273 267 254 239 229 232 241 243 240 236 231 228 237 248 256 261 263 264 264 266 273 279 280 284 293 295 291 288 293 287 264 252 247 226 193 199 219 229 226 225 228 228 225 221 220 221 221 221 222 223 224 225 223 219 215 212 213 215 217 219 221 224 226 229 233 235 237 237 237 236 235 234 234 233
168 176 202 207 176 204 251 297 304 297 289 255 256 259 242 233 227 229 237 242 241 236 230 231 238 243 250 257 261 263 265 265 266 268 269 266 269 279 276 250 224 289 287 260 254 256 236 194 198 209 211 214 220 226 228 228 226 224 224 224 224 224 224 224 224 222 219 216 214 214 216 219 221 222 224 227 230 232 234 237 238 239 238 238 237 237
172 181 201 213 214 235 273 293 272 266 238 225 225 223 224 228 224 227 235 239 241 239 234 233 236 237 241 249 255 257 257 258 260 261 263 263 263 267 266 251 217 181 194 279 267 264 267 251 206 202 209 214 217 221 225 229 232 233 230 227 226 226 226 224 222 221 220 219 217 216 217 219 220 221 223 225 227 230 232 234 235 237 238 240 241 240
180 184 198 224 243 263 299 259 216 245 229 214 215 219 226 227 225 230 237 239 239 240 237 234 234 234 234 238 247 254 255 253 253 252 255 259 259 255 252 250 238 212 196 195 212 259 276 281 263 228 214 214 215 218 219 221 228 235 239 237 232 229 229 228 226 227 225 223 222 221 222 223 222 224 225 226 226 227 229 232 234 235 236 238 240 241
179 173 186 230 245 241 272 262 255 269 260 229 225 226 226 227 229 233 241 246 245 242 240 238 238 240 238 236 241 248 253 253 252 250 250 253 255 252 245 242 242 234 216 201 196 209 244 272 275 266 246 222 217 221 220 219 223 228 235 242 243 243 242 241 242 243 238 233 230 226 226 227 227 228 231 232 231 229 226 227 230 233 235 237 238 240
190 183 187 214 230 231 245 272 269 265 255 242 236 232 232 236 238 242 249 253 251 245 242 240 240 242 243 242 244 247 252 256 257 255 250 248 250 249 243 236 235 237 232 221 214 213 216 237 264 276 269 255 246 253 249 242 236 229 233 245 249 251 251 246 243 245 244 241 237 233 233 234 231 231 234 236 236 233 229 226 226 229 233 235 237 239
208 218 220 218 230 231 224 233 243 233 239 250 244 237 239 242 245 251 260 261 256 251 247 245 243 243 243 242 243 245 250 254 256 254 250 246 244 243 240 235 233 234 236 234 230 225 222 228 239 256 263 259 263 300 289 285 274 254 241 243 239 237 239 237 235 238 242 242 239 237 239 239 234 234 237 238 236 234 232 233 232 231 230 228 230 235
222 236 235 227 236 241 231 232 248 249 247 251 250 244 238 234 239 248 256 259 257 252 248 247 246 246 246 246 245 245 247 250 251 251 249 247 244 242 239 236 233 233 235 237 237 235 233 236 241 246 256 258 255 262 264 280 300 283 261 239 220 211 216 223 225 232 238 240 236 234 236 237 235 237 240 241 239 237 235 238 242 246 244 232 223 225
227 239 244 240 242 244 236 237 255 262 259 253 248 245 239 232 234 237 235 244 254 254 248 248 248 247 247 249 249 248 249 251 252 250 249 248 245 243 242 240 236 235 236 237 239 239 238 242 248 252 255 254 250 254 249 234 247 283 278 259 227 201 201 211 216 223 232 236 235 234 235 235 236 239 242 244 244 242 241 242 246 252 257 251 235 225
235 240 244 239 235 234 233 240 264 275 272 258 246 244 244 241 241 243 244 250 260 265 263 260 258 255 252 251 251 250 250 252 254 253 252 252 249 246 244 243 241 238 238 239 240 241 240 242 248 254 257 255 251 253 251 239 234 239 227 231 238 215 200 206 210 217 228 233 234 235 236 237 239 242 244 245 245 245 248 250 249 250 253 254 248 237
234 235 240 237 229 226 225 228 250 274 283 272 247 242 243 244 247 253 258 261 266 268 268 268 266 265 262 258 255 254 253 252 254 255 254 255 255 252 249 247 245 243 242 241 242 244 243 242 245 250 256 258 256 255 254 250 248 247 232 217 220 223 221 215 205 211 235 242 239 236 236 239 242 243 245 247 248 250 252 252 250 249 248 248 248 244
236 235 243 244 235 224 217 219 240 268 283 282 266 251 247 249 253 258 262 264 266 268 270 271 271 271 269 266 262 260 258 256 256 257 257 256 257 257 255 253 251 248 246 244 244 245 246 245 245 247 251 256 258 258 257 255 254 254 250 237 225 221 226 233 234 228 267 263 255 246 241 241 242 243 244 247 252 256 255 251 248 248 249 249 248 247
241 238 243 248 247 247 251 258 269 276 279 278 272 264 258 257 258 259 259 262 264 267 270 273 274 274 273 272 270 266 264 262 260 260 261 260 259 258 258 257 257 255 253 251 249 248 247 246 246 247 248 251 255 258 258 256 254 254 254 254 251 242 236 242 255 272 308 299 283 268 253 245 242 241 241 244 249 253 253 251 250 251 252 251 247 244
251 251 254 257 260 266 273 275 275 274 271 269 271 274 273 270 268 265 262 263 264 267 270 272 273 273 272 272 272 270 268 267 265 263 263 263 263 262 261 259 258 258 257 255 254 255 253 250 247 247 247 249 253 256 258 258 256 253 253 255 258 259 256 252 252 256 278 301 298 287 271 256 246 241 239 240 242 246 248 249 251 254 253 250 246 242
260 263 264 265 266 270 275 279 282 281 276 272 273 277 277 275 274 270 266 264 264 265 268 269 270 271 271 270 270 270 269 269 268 266 266 265 264 265 264 262 261 260 259 257 255 255 257 256 253 249 248 249 252 254 256 258 258 256 253 252 254 259 263 262 254 252 262 276 284 288 282 271 261 251 244 242 241 239 239 242 247 251 251 246 242 242
268 266 266 269 271 271 274 283 288 283 278 276 278 278 276 274 275 274 273 271 269 267 268 268 269 270 271 270 271 270 269 269 269 268 268 267 266 266 266 265 263 261 261 260 257 254 254 256 256 255 252 251 253 255 256 257 258 258 256 252 251 254 259 261 260 259 263 266 266 270 280 283 275 262 251 247 247 243 239 238 241 249 253 248 240 241
267 268 272 276 279 280 283 288 283 274 273 278 279 277 278 279 278 277 277 276 275 273 272 271 271 271 271 272 272 272 271 271 271 271 270 269 268 267 267 267 266 263 261 260 259 256 253 253 254 256 255 254 253 255 256 256 256 257 258 256 253 253 255 259 263 266 268 266 261 256 262 280 282 269 257 249 250 252 253 249 243 244 249 249 244 243
272 277 279 279 280 282 284 281 270 269 276 283 281 277 279 281 280 279 279 278 278 278 276 275 275 275 275 276 276 277 277 277 277 276 275 273 272 271 269 267 266 265 263 261 259 257 255 252 251 252 254 254 253 253 254 255 254 254 256 258 257 254 252 255 261 265 268 267 263 259 261 269 280 278 267 257 250 256 269 267 257 246 241 241 244 245
278 282 281 278 277 278 277 273 270 273 278 280 278 278 279 279 277 278 279 280 279 279 279 279 280 281 281 281 282 282 283 282 282 281 280 279 280 279 276 271 268 265 263 261 259 257 256 253 251 250 251 251 250 250 250 252 252 251 251 254 257 256 252 252 255 261 267 269 267 265 263 263 268 278 276 265 254 252 264 274 267 253 243 240 246 249
Height
3137 3138 3139 3139 3140 3143 3147 3150 3153 3155 3157 3158 3160 3161 3162 3164 3164 3165 3165 3165 3166 3167 3168 3169 3170 3171 3171 3172 3173 3173 3174 3175 3176 3177 3178 3179 3181 3182 3184 3186 3188 3190 3192 3194 3196 3198 3200 3202 3203 3205 3207 3208 3209 3210 3212 3214 3215 3216 3218 3219 3221 3222 3223 3224 3226 3227 3229 3231 3232 3233 3234 3235 3236 3237 3239 3240 3241 3242 3243 3244 3245 3245 3246 3246 3247 3248
3136 3137 3137 3138 3140 3144 3148 3150 3153 3154 3156 3157 3159 3160 3162 3163 3164 3165 3165 3165 3166 3167 3168 3168 3168 3169 3170 3170 3171 3172 3172 3174 3175 3176 3177 3178 3180 3181 3183 3185 3187 3189 3191 3192 3194 3196 3198 3200 3202 3203 3205 3207 3208 3210 3212 3213 3215 3216 3217 3219 3220 3222 3223 3224 3226 3228 3229 3231 3232 3234 3235 3235 3236 3237 3239 3240 3241 3242 3243 3244 3245 3246 3246 3247 3247 3248
3134 3135 3136 3138 3142 3146 3148 3150 3152 3154 3155 3157 3158 3159 3161 3162 3164 3165 3165 3165 3165 3166 3167 3167 3167 3168 3169 3169 3169 3170 3171 3172 3174 3175 3176 3177 3178 3180 3182 3184 3186 3188 3190 3191 3192 3194 3196 3198 3200 3202 3204 3206 3208 3209 3211 3213 3214 3215 3217 3218 3219 3221 3223 3224 3226 3228 3229 3231 3232 3233 3234 3235 3236 3237 3238 3240 3241 3242 3244 3245 3246 3246 3247 3247 3248 3248
3133 3133 3135 3139 3142 3146 3148 3149 3151 3153 3154 3156 3157 3158 3160 3162 3163 3165 3165 3165 3165 3166 3166 3166 3166 3167 3168 3168 3168 3169 3169 3171 3172 3173 3174 3175 3177 3179 3181 3183 3184 3186 3188 3190 3191 3193 3194 3196 3198 3200 3202 3204 3206 3208 3210 3212 3213 3215 3216 3217 3219 3221 3222 3224 3225 3227 3228 3230 3231 3232 3234 3235 3236 3237 3238 3239 3241 3243 3244 3245 3246 3247 3247 3248 3249 3249
3133 3133 3136 3139 3142 3145 3147 3149 3150 3152 3154 3155 3156 3157 3159 3160 3163 3164 3164 3165 3165 3166 3166 3165 3165 3166 3166 3166 3167 3167 3168 3169 3170 3171 3172 3174 3175 3177 3179 3181 3183 3184 3187 3189 3190 3192 3193 3194 3196 3198 3201 3203 3205 3207 3209 3211 3212 3214 3216 3217 3218 3220 3222 3224 3225 3226 3228 3229 3230 3232 3233 3235 3236 3237 3239 3240 3242 3243 3244 3245 3246 3247 3248 3248 3249 3250
3134 3135 3137 3139 3141 3144 3146 3148 3149 3151 3153 3154 3155 3156 3158 3160 3162 3163 3164 3165 3166 3166 3166 3165 3165 3164 3165 3165 3166 3166 3167 3167 3168 3169 3171 3173 3174 3175 3177 3179 3181 3183 3185 3187 3189 3191 3192 3194 3195 3197 3199 3201 3204 3206 3208 3210 3212 3214 3215 3216 3218 3219 3221 3223 3224 3225 3227 3228 3230 3232 3234 3236 3237 3238 3240 3241 3242 3243 3244 3245 3246 3247 3248 3249 3249 3250
3133 3135 3137 3138 3141 3143 3145 3147 3148 3150 3152 3153 3153 3155 3157 3159 3161 3162 3163 3165 3166 3165 3165 3165 3165 3164 3164 3165 3165 3165 3165 3166 3166 3168 3170 3171 3173 3174 3176 3178 3180 3182 3183 3185 3187 3189 3191 3193 3194 3196 3198 3200 3203 3205 3207 3209 3211 3212 3214 3215 3217 3218 3220 3222 3223 3225 3226 3228 3229 3231 3233 3235 3237 3238 3240 3241 3241 3243 3244 3244 3245 3247 3248 3248 3249 3250
3132 3135 3136 3138 3140 3142 3144 3145 3147 3149 3151 3151 3152 3154 3157 3158 3160 3161 3163 3164 3165 3165 3165 3164 3165 3165 3164 3164 3164 3164 3164 3164 3165 3166 3168 3170 3171 3173 3175 3177 3178 3180 3182 3183 3185 3187 3189 3191 3193 3194 3197 3199 3201 3204 3206 3207 3209 3211 3213 3214 3216 3217 3219 3221 3222 3224 3225 3227 3229 3231 3233 3234 3236 3237 3239 3240 3241 3242 3243 3244 3245 3246 3247 3248 3249 3250
3131 3134 3136 3137 3139 3141 3142 3144 3146 3148 3149 3150 3151 3154 3156 3157 3158 3160 3162 3163 3164 3165 3164 3163 3164 3165 3163 3163 3163 3163 3163 3163 3164 3165 3167 3168 3170 3172 3174 3175 3177 3179 3181 3182 3184 3186 3188 3190 3191 3193 3196 3198 3200 3202 3204 3206 3208 3210 3212 3213 3214 3216 3218 3219 3221 3223 3224 3226 3228 3230 3231 3234 3235 3236 3238 3239 3240 3241 3242 3244 3245 3246 3247 3248 3249 3250
3132 3134 3136 3137 3139 3140 3141 3143 3145 3146 3148 3149 3151 3153 3154 3155 3157 3159 3160 3162 3163 3164 3163 3162 3163 3163 3162 3162 3162 3161 3161 3162 3163 3164 3165 3167 3168 3170 3172 3174 3176 3178 3179 3181 3182 3184 3186 3189 3191 3193 3195 3197 3199 3200 3202 3205 3206 3208 3210 3212 3213 3215 3216 3218 3220 3222 3223 3225 3227 3228 3230 3232 3234 3235 3237 3238 3239 3241 3242 3243 3245 3246 3247 3248 3249 3250
3132 3133 3135 3136 3137 3138 3140 3142 3143 3145 3147 3149 3150 3152 3153 3154 3156 3157 3159 3160 3162 3162 3161 3161 3162 3162 3161 3161 3161 3160 3160 3161 3162 3163 3164 3165 3166 3168 3170 3172 3174 3176 3178 3179 3181 3183 3185 3187 3189 3191 3193 3195 3197 3199 3200 3202 3204 3206 3208 3210 3212 3213 3215 3217 3219 3221 3222 3224 3225 3227 3229 3231 3233 3235 3236 3238 3239 3241 3242 3243 3244 3246 3247 3248 3249 3250
3131 3133 3134 3134 3135 3137 3139 3140 3141 3143 3145 3147 3149 3150 3152 3153 3154 3156 3158 3159 3160 3159 3159 3159 3160 3161 3161 3161 3161 3161 3161 3161 3161 3161 3163 3164 3165 3166 3168 3169 3171 3173 3176 3178 3180 3181 3183 3184 3186 3188 3191 3193 3195 3196 3198 3200 3202 3204 3207 3209 3210 3212 3213 3215 3217 3220 3221 3223 3224 3226 3228 3230 3232 3234 3235 3237 3239 3240 3242 3243 3244 3245 3246 3247 3248 3250
3131 3132 3132 3133 3134 3136 3138 3139 3140 3141 3143 3145 3147 3149 3150 3151 3153 3154 3155 3156 3157 3156 3157 3158 3159 3160 3160 3161 3161 3161 3161 3160 3160 3160 3161 3162 3163 3165 3166 3167 3169 3171 3173 3175 3177 3179 3181 3182 3184 3186 3188 3190 3192 3194 3196 3198 3200 3203 3205 3207 3209 3210 3212 3214 3216 3218 3220 3222 3223 3225 3227 3229 3231 3233 3234 3236 3238 3239 3241 3242 3243 3245 3246 3247 3248 3249
3129 3131 3131 3132 3133 3134 3136 3137 3138 3139 3141 3143 3144 3146 3147 3147 3149 3151 3152 3153 3154 3154 3156 3157 3158 3158 3159 3160 3160 3160 3160 3159 3159 3159 3160 3161 3162 3163 3164 3165 3167 3168 3170 3172 3174 3177 3178 3180 3182 3185 3187 3189 3190 3192 3195 3197 3199 3201 3203 3205 3207 3209 3211 3212 3214 3217 3219 3220 3222 3224 3226 3228 3230 3232 3233 3235 3237 3238 3240 3241 3243 3244 3245 3246 3247 3248
3127 3129 3130 3131 3132 3133 3134 3135 3136 3137 3139 3141 3142 3144 3145 3144 3145 3147 3148 3150 3151 3152 3155 3157 3156 3156 3157 3158 3159 3159 3159 3159 3158 3158 3158 3159 3160 3161 3162 3163 3164 3166 3167 3169 3171 3173 3176 3178 3180 3183 3185 3187 3189 3191 3193 3195 3197 3199 3201 3203 3206 3208 3210 3211 3213 3215 3217 3219 3221 3223 3224 3226 3228 3230 3232 3234 3236 3237 3238 3240 3242 3243 3244 3245 3246 3247
3126 3128 3129 3130 3131 3131 3132 3133 3135 3136 3138 3139 3140 3142 3143 3143 3144 3144 3145 3146 3148 3150 3153 3154 3154 3154 3154 3156 3156 3157 3158 3158 3158 3158 3158 3158 3159 3160 3160 3161 3162 3163 3165 3166 3168 3171 3173 3176 3178 3180 3183 3185 3187 3189 3191 3193 3195 3197 3199 3201 3204 3206 3208 3210 3212 3213 3215 3218 3219 3221 3223 3224 3226 3228 3230 3232 3234 3236 3237 3239 3240 3242 3243 3244 3245 3246
3126 3128 3129 3129 3130 3131 3131 3132 3133 3135 3136 3137 3139 3140 3140 3142 3143 3144 3145 3146 3147 3148 3150 3152 3152 3153 3154 3154 3155 3156 3157 3157 3158 3157 3157 3157 3157 3158 3159 3159 3160 3161 3162 3164 3166 3168 3171 3173 3176 3178 3180 3183 3185 3187 3189 3192 3194 3196 3198 3200 3202 3204 3207 3208 3210 3212 3214 3216 3218 3219 3221 3223 3225 3227 3229 3231 3233 3235 3236 3238 3239 3240 3241 3243 3244 3245
3125 3127 3128 3129 3130 3130 3131 3131 3132 3133 3135 3136 3137 3137 3139 3141 3143 3143 3144 3146 3146 3146 3147 3150 3151 3152 3153 3153 3153 3154 3155 3155 3156 3156 3156 3156 3156 3156 3157 3158 3159 3159 3161 3162 3163 3166 3168 3170 3173 3175 3178 3180 3183 3186 3188 3191 3193 3195 3197 3199 3201 3203 3204 3207 3209 3211 3212 3214 3216 3217 3219 3221 3223 3225 3227 3229 3231 3233 3234 3236 3237 3239 3240 3241 3242 3244
3125 3127 3128 3129 3129 3130 3130 3131 3132 3133 3134 3135 3135 3136 3138 3140 3141 3142 3143 3143 3144 3144 3146 3149 3150 3151 3153 3152 3151 3152 3152 3153 3154 3154 3155 3155 3155 3155 3156 3156 3157 3158 3159 3161 3162 3164 3165 3168 3170 3173 3176 3178 3181 3183 3186 3189 3191 3193 3195 3197 3199 3201 3203 3206 3208 3209 3211 3212 3214 3216 3218 3220 3221 3223 3225 3227 3229 3230 3232 3234 3236 3237 3239 3240 3241 3242
3125 3126 3128 3129 3129 3129 3130 3131 3132 3132 3133 3134 3135 3135 3137 3137 3138 3140 3140 3140 3141 3142 3144 3147 3150 3152 3153 3152 3151 3151 3151 3151 3152 3152 3153 3154 3154 3154 3155 3155 3156 3157 3158 3160 3161 3162 3164 3166 3168 3171 3173 3176 3179 3181 3184 3186 3188 3191 3193 3195 3197 3200 3202 3204 3205 3207 3209 3211 3212 3214 3216 3218 3219 3221 3223 3225 3226 3228 3230 3232 3234 3235 3237 3238 3239 3240
3125 3126 3127 3128 3129 3129 3130 3131 3131 3132 3132 3133 3134 3134 3135 3136 3137 3138 3140 3140 3140 3141 3142 3143 3148 3152 3153 3152 3152 3151 3151 3150 3150 3150 3151 3152 3152 3153 3153 3154 3155 3156 3157 3158 3160 3162 3163 3164 3166 3169 3171 3174 3176 3178 3181 3183 3186 3188 3191 3193 3195 3198 3200 3201 3203 3205 3207 3209 3211 3212 3214 3216 3218 3219 3221 3222 3224 3226 3228 3230 3232 3233 3235 3236 3237 3238
3125 3126 3127 3128 3128 3129 3130 3131 3131 3132 3132 3132 3133 3133 3134 3135 3136 3136 3138 3140 3139 3140 3140 3141 3146 3151 3152 3151 3151 3151 3150 3150 3149 3149 3149 3150 3151 3151 3152 3153 3153 3154 3155 3157 3158 3160 3161 3163 3165 3167 3170 3172 3174 3175 3178 3180 3183 3185 3188 3191 3193 3195 3198 3199 3201 3203 3205 3207 3208 3210 3212 3214 3216 3217 3219 3220 3222 3224 3225 3227 3229 3231 3232 3234 3235 3237
3125 3126 3127 3128 3129 3130 3131 3131 3131 3131 3132 3132 3132 3133 3134 3134 3135 3135 3136 3138 3139 3140 3140 3141 3145 3150 3151 3150 3151 3151 3150 3150 3149 3148 3148 3148 3149 3149 3150 3151 3152 3153 3154 3155 3156 3157 3158 3160 3162 3164 3167 3170 3171 3173 3176 3178 3180 3183 3185 3188 3190 3193 3195 3197 3199 3201 3203 3205 3207 3208 3210 3212 3213 3215 3216 3218 3220 3221 3223 3225 3227 3229 3230 3232 3233 3235
3126 3127 3127 3129 3130 3131 3131 3131 3132 3132 3132 3133 3133 3133 3133 3134 3135 3135 3135 3137 3138 3140 3141 3141 3145 3149 3150 3150 3150 3150 3150 3150 3149 3148 3148 3148 3148 3148 3149 3149 3150 3151 3151 3152 3153 3154 3156 3157 3159 3161 3164 3166 3169 3171 3173 3176 3178 3180 3183 3185 3187 3190 3193 3195 3197 3199 3201 3203 3204 3206 3208 3209 3211 3213 3214 3216 3218 3220 3222 3223 3225 3226 3228 3230 3231 3233
3126 3127 3128 3129 3130 3132 3132 3132 3132 3132 3133 3133 3133 3133 3134 3134 3135 3135 3136 3137 3138 3140 3140 3141 3144 3147 3149 3149 3150 3150 3150 3149 3148 3148 3147 3147 3147 3147 3147 3148 3148 3149 3149 3150 3151 3152 3154 3155 3156 3158 3160 3163 3166 3169 3171 3173 3175 3178 3180 3182 3185 3187 3190 3192 3194 3196 3198 3200 3202 3203 3205 3207 3209 3210 3212 3214 3216 3218 3220 3221 3223 3224 3226 3227 3229 3230
3126 3126 3127 3128 3129 3130 3130 3130 3131 3132 3132 3133 3133 3134 3134 3135 3135 3136 3136 3137 3138 3140 3141 3141 3143 3145 3147 3148 3149 3149 3149 3149 3148 3148 3147 3147 3147 3146 3146 3146 3147 3147 3147 3148 3149 3150 3151 3153 3154 3155 3157 3159 3162 3165 3168 3170 3172 3175 3177 3180 3182 3185 3187 3189 3191 3193 3195 3197 3199 3200 3202 3204 3206 3208 3210 3212 3214 3216 3217 3219 3220 3222 3224 3225 3226 3228
3124 3125 3126 3127 3127 3128 3128 3129 3130 3131 3132 3132 3133 3134 3134 3135 3135 3136 3137 3138 3139 3140 3141 3142 3143 3144 3146 3147 3148 3148 3148 3148 3148 3148 3148 3147 3147 3146 3146 3146 3145 3145 3145 3145 3146 3147 3148 3150 3152 3153 3155 3156 3159 3161 3164 3166 3169 3171 3174 3177 3179 3181 3183 3186 3188 3190 3192 3194 3196 3198 3199 3201 3203 3205 3208 3210 3211 3213 3215 3216 3218 3220 3221 3223 3224 3225
3123 3124 3125 3125 3126 3127 3128 3129 3130 3130 3131 3132 3133 3133 3134 3135 3135 3136 3137 3138 3139 3140 3142 3142 3143 3144 3145 3146 3147 3147 3147 3147 3147 3147 3147 3147 3147 3146 3146 3146 3145 3144 3144 3144 3144 3145 3146 3148 3150 3151 3153 3155 3156 3158 3161 3163 3165 3167 3170 3173 3175 3177 3179 3182 3184 3186 3189 3191 3193 3195 3197 3199 3201 3203 3205 3207 3209 3211 3212 3214 3215 3217 3218 3220 3221 3223
3123 3123 3124 3125 3125 3126 3127 3128 3129 3130 3130 3131 3132 3132 3133 3134 3135 3136 3137 3138 3139 3140 3141 3142 3142 3143 3144 3145 3146 3146 3146 3146 3146 3146 3147 3147 3147 3147 3146 3146 3146 3145 3144 3143 3143 3144 3145 3146 3148 3149 3151 3152 3154 3156 3158 3160 3162 3164 3167 3169 3171 3173 3175 3177 3180 3182 3185 3187 3189 3192 3195 3196 3198 3200 3202 3204 3206 3207 3209 3211 3212 3214 3216 3217 3218 3220
3122 3123 3124 3124 3125 3126 3127 3127 3128 3129 3129 3130 3131 3131 3132 3132 3133 3134 3136 3136 3138 3140 3141 3141 3141 3142 3143 3144 3145 3145 3146 3146 3146 3146 3146 3146 3147 3147 3146 3146 3146 3145 3145 3144 3143 3143 3144 3145 3146 3147 3149 3150 3152 3153 3155 3157 3159 3161 3164 3166 3168 3170 3172 3174 3176 3179 3181 3183 3186 3189 3192 3193 3195 3197 3199 3201 3203 3205 3206 3208 3210 3211 3213 3214 3216 3217
3122 3123 3123 3123 3124 3125 3126 3126 3127 3128 3128 3129 3129 3130 3130 3131 3132 3133 3134 3135 3136 3138 3139 3140 3140 3140 3141 3142 3144 3144 3145 3145 3146 3146 3146 3146 3146 3146 3146 3146 3145 3145 3145 3144 3143 3143 3144 3144 3145 3146 3147 3148 3150 3151 3152 3154 3156 3158 3160 3163 3165 3167 3169 3171 3173 3175 3177 3180 3183 3186 3188 3190 3192 3194 3196 3198 3200 3202 3203 3205 3207 3208 3210 3211 3213 3214
3122 3122 3123 3123 3124 3125 3125 3126 3126 3127 3127 3127 3127 3128 3129 3129 3130 3131 3131 3133 3134 3136 3137 3139 3138 3138 3139 3140 3142 3143 3144 3144 3145 3145 3145 3146 3146 3146 3146 3145 3145 3145 3145 3145 3144 3143 3143 3144 3145 3145 3146 3147 3147 3149 3150 3151 3153 3155 3157 3159 3161 3163 3166 3168 3170 3172 3174 3177 3180 3182 3185 3187 3189 3191 3193 3195 3197 3199 3201 3202 3203 3205 3206 3208 3209 3211
3121 3122 3122 3123 3124 3124 3125 3125 3126 3126 3126 3126 3126 3126 3127 3128 3129 3129 3129 3130 3132 3133 3135 3136 3136 3136 3137 3138 3139 3141 3142 3143 3143 3144 3144 3145 3145 3145 3145 3145 3145 3145 3145 3145 3144 3144 3143 3143 3143 3144 3144 3145 3145 3147 3148 3149 3151 3152 3154 3155 3157 3159 3162 3164 3167 3169 3172 3174 3176 3178 3181 3183 3186 3188 3190 3192 3194 3196 3197 3199 3200 3202 3203 3205 3206 3207
3121 3121 3122 3122 3123 3124 3124 3125 3125 3126 3125 3125 3125 3125 3126 3126 3127 3128 3128 3128 3130 3131 3132 3133 3134 3134 3135 3136 3137 3139 3140 3141 3142 3142 3143 3144 3144 3145 3145 3144 3144 3144 3144 3144 3144 3143 3143 3142 3142 3142 3143 3143 3143 3145 3146 3147 3148 3149 3151 3152 3154 3156 3158 3160 3163 3165 3168 3170 3172 3174 3176 3179 3181 3183 3186 3189 3190 3192 3193 3195 3197 3199 3200 3202 3203 3204
3121 3121 3121 3122 3122 3123 3123 3124 3125 3124 3123 3123 3124 3124 3125 3125 3126 3126 3127 3127 3128 3129 3130 3131 3132 3132 3133 3134 3135 3136 3137 3138 3140 3140 3141 3142 3143 3144 3144 3144 3143 3143 3143 3143 3143 3143 3142 3141 3141 3141 3141 3142 3142 3143 3144 3145 3146 3147 3148 3149 3151 3152 3154 3156 3158 3161 3163 3166 3168 3170 3171 3173 3176 3178 3180 3183 3185 3187 3189 3191 3193 3195 3196 3198 3199 3200
3120 3121 3121 3121 3122 3122 3123 3123 3123 3122 3122 3123 3123 3124 3124 3124 3125 3125 3125 3125 3126 3127 3128 3129 3130 3130 3131 3132 3133 3134 3135 3136 3137 3138 3139 3140 3141 3142 3142 3142 3142 3142 3142 3142 3142 3142 3142 3141 3140 3140 3140 3140 3141 3141 3141 3142 3143 3144 3145 3146 3147 3149 3150 3152 3155 3158 3160 3162 3165 3167 3169 3171 3173 3175 3177 3178 3179 3180 3183 3187 3189 3191 3192 3193 3195 3196
3120 3120 3120 3121 3121 3122 3122 3122 3122 3122 3122 3122 3122 3123 3123 3123 3123 3124 3124 3124 3124 3125 3126 3127 3128 3128 3129 3130 3131 3131 3132 3133 3134 3135 3136 3137 3138 3139 3140 3141 3141 3141 3141 3141 3141 3141 3141 3140 3140 3139 3139 3139 3140 3140 3139 3140 3141 3142 3142 3143 3145 3147 3149 3152 3154 3156 3158 3161 3163 3166 3167 3169 3170 3172 3174 3176 3177 3177 3178 3181 3184 3187 3188 3189 3190 3192
3119 3119 3120 3121 3121 3121 3122 3122 3121 3121 3121 3120 3120 3121 3121 3122 3122 3123 3123 3122 3122 3123 3124 3125 3126 3126 3127 3128 3129 3129 3130 3131 3132 3133 3134 3135 3135 3136 3137 3138 3139 3139 3139 3139 3139 3139 3139 3139 3139 3138 3138 3138 3139 3139 3138 3138 3139 3140 3141 3141 3143 3145 3147 3149 3152 3154 3156 3159 3161 3163 3164 3166 3168 3169 3170 3172 3175 3177 3177 3177 3178 3180 3183 3185 3187 3188
3118 3119 3119 3120 3120 3120 3121 3121 3120 3120 3119 3118 3118 3119 3120 3120 3121 3122 3122 3119 3118 3120 3122 3123 3124 3124 3125 3126 3127 3127 3128 3129 3129 3130 3131 3132 3133 3133 3134 3135 3136 3136 3137 3137 3137 3138 3138 3138 3138 3138 3137 3137 3138 3138 3138 3138 3138 3139 3139 3140 3140 3142 3143 3145 3148 3151 3152 3155 3157 3159 3161 3162 3164 3166 3167 3168 3170 3173 3176 3178 3178 3177 3177 3179 3181 3183
3117 3118 3118 3119 3119 3119 3119 3119 3118 3118 3117 3117 3117 3118 3118 3119 3119 3121 3119 3116 3114 3117 3118 3119 3121 3122 3122 3123 3124 3125 3125 3125 3126 3127 3128 3129 3129 3130 3131 3132 3133 3133 3134 3134 3135 3135 3136 3136 3136 3136 3136 3136 3137 3137 3138 3138 3138 3138 3138 3139 3138 3139 3140 3142 3144 3147 3149 3151 3154 3155 3156 3158 3160 3162 3163 3165 3167 3169 3172 3176 3177 3176 3175 3174 3175 3176
3116 3116 3116 3117 3117 3117 3118 3118 3117 3115 3115 3115 3116 3116 3116 3118 3118 3117 3115 3113 3113 3115 3116 3116 3118 3119 3119 3120 3121 3121 3122 3122 3122 3123 3124 3125 3126 3127 3128 3129 3129 3130 3131 3131 3132 3133 3134 3134 3134 3134 3134 3134 3135 3136 3136 3137 3137 3137 3137 3138 3138 3138 3139 3140 3142 3144 3146 3148 3150 3152 3152 3154 3156 3158 3160 3161 3164 3166 3168 3170 3173 3174 3175 3174 3173 3172
3114 3115 3114 3115 3115 3116 3116 3116 3116 3114 3112 3113 3113 3114 3114 3116 3115 3113 3112 3112 3113 3114 3114 3115 3116 3116 3116 3117 3117 3118 3118 3118 3119 3119 3120 3121 3122 3123 3124 3125 3126 3127 3128 3128 3129 3130 3130 3131 3132 3132 3132 3132 3132 3134 3135 3135 3135 3135 3136 3137 3137 3138 3138 3139 3139 3141 3144 3145 3146 3148 3149 3150 3152 3154 3156 3158 3160 3162 3164 3166 3168 3169 3171 3172 3172 3172
3112 3113 3112 3112 3113 3113 3114 3115 3115 3112 3110 3110 3111 3111 3112 3112 3111 3110 3110 3111 3111 3112 3112 3113 3113 3113 3114 3114 3114 3114 3115 3115 3115 3115 3116 3117 3117 3118 3120 3121 3122 3123 3124 3125 3126 3126 3127 3128 3129 3129 3129 3130 3130 3131 3132 3133 3134 3134 3134 3135 3136 3137 3138 3138 3138 3140 3142 3143 3143 3144 3146 3147 3148 3150 3152 3154 3157 3159 3161 3163 3164 3165 3167 3168 3169 3171
3110 3111 3110 3110 3110 3111 3111 3111 3111 3109 3108 3109 3109 3109 3109 3108 3108 3108 3108 3108 3109 3109 3109 3109 3110 3110 3110 3110 3111 3111 3112 3112 3112 3111 3112 3112 3113 3114 3115 3116 3117 3119 3120 3121 3122 3123 3123 3124 3125 3126 3127 3127 3127 3128 3129 3130 3131 3132 3132 3133 3134 3135 3136 3138 3138 3138 3139 3140 3141 3142 3143 3144 3145 3147 3148 3151 3153 3155 3157 3159 3161 3162 3163 3164 3166 3168
3108 3108 3108 3108 3108 3108 3108 3108 3107 3106 3106 3106 3106 3106 3106 3106 3105 3105 3105 3105 3105 3106 3106 3106 3106 3107 3106 3106 3107 3107 3108 3108 3108 3108 3108 3108 3108 3109 3110 3111 3112 3113 3115 3116 3117 3118 3119 3120 3121 3122 3123 3124 3124 3125 3125 3126 3128 3129 3130 3131 3131 3132 3133 3135 3136 3137 3137 3137 3139 3140 3141 3141 3142 3144 3146 3147 3149 3151 3153 3155 3156 3158 3159 3161 3163 3165
3106 3106 3106 3106 3106 3106 3105 3105 3105 3104 3104 3104 3104 3103 3103 3103 3102 3102 3102 3102 3102 3102 3102 3102 3102 3103 3103 3102 3103 3103 3103 3104 3104 3104 3104 3104 3104 3104 3105 3106 3107 3107 3109 3110 3112 3113 3114 3115 3117 3118 3119 3120 3121 3121 3122 3123 3124 3125 3127 3128 3129 3130 3130 3132 3133 3134 3135 3136 3136 3137 3138 3139 3139 3141 3143 3144 3145 3147 3149 3151 3152 3154 3156 3158 3160 3162
3104 3104 3104 3103 3103 3103 3103 3102 3102 3102 3101 3101 3101 3100 3100 3100 3099 3099 3098 3098 3098 3099 3099 3098 3099 3099 3099 3099 3098 3099 3099 3099 3099 3099 3100 3100 3100 3100 3100 3101 3102 3102 3103 3104 3106 3107 3108 3109 3111 3114 3115 3116 3117 3117 3118 3119 3120 3121 3123 3124 3126 3127 3128 3129 3130 3131 3132 3133 3134 3134 3135 3136 3136 3137 3139 3140 3141 3143 3145 3146 3148 3150 3152 3154 3156 3157
3101 3101 3101 3100 3100 3100 3100 3100 3100 3099 3098 3098 3098 3097 3097 3097 3096 3096 3096 3095 3095 3095 3095 3095 3095 3095 3095 3095 3094 3094 3094 3095 3095 3094 3095 3095 3095 3095 3095 3095 3096 3097 3097 3098 3100 3101 3102 3103 3105 3107 3110 3112 3112 3113 3113 3115 3116 3117 3118 3120 3122 3123 3125 3126 3127 3128 3129 3130 3130 3131 3132 3133 3134 3135 3136 3136 3137 3138 3140 3141 3144 3146 3148 3150 3151 3152
3099 3098 3098 3098 3097 3097 3097 3098 3097 3096 3095 3095 3095 3095 3095 3094 3094 3094 3093 3093 3092 3092 3091 3091 3091 3091 3091 3091 3091 3090 3089 3090 3090 3089 3089 3089 3090 3090 3090 3089 3089 3090 3091 3092 3093 3095 3096 3097 3098 3100 3103 3106 3108 3108 3108 3110 3111 3113 3114 3115 3117 3119 3121 3122 3124 3124 3125 3126 3127 3127 3128 3129 3131 3133 3134 3134 3134 3134 3136 3138 3139 3141 3143 3145 3146 3147
3096 3096 3095 3095 3094 3094 3095 3095 3094 3093 3093 3093 3093 3092 3092 3092 3091 3091 3090 3090 3089 3089 3088 3088 3088 3088 3087 3087 3086 3085 3085 3085 3085 3084 3084 3084 3084 3084 3084 3084 3083 3084 3085 3086 3086 3087 3089 3091 3092 3093 3095 3099 3102 3102 3103 3104 3106 3108 3109 3111 3112 3114 3115 3117 3119 3121 3122 3123 3124 3124 3124 3125 3127 3128 3130 3131 3131 3132 3133 3135 3135 3136 3138 3141 3142 3143
3093 3093 3092 3092 3091 3091 3092 3093 3091 3090 3091 3091 3090 3090 3090 3089 3089 3088 3088 3087 3086 3086 3085 3085 3085 3084 3084 3083 3082 3081 3080 3079 3079 3079 3078 3078 3079 3078 3078 3078 3077 3077 3078 3079 3080 3081 3082 3083 3085 3087 3089 3092 3095 3096 3097 3099 3100 3102 3103 3105 3107 3109 3110 3112 3114 3116 3117 3119 3121 3122 3123 3123 3123 3124 3126 3127 3128 3129 3130 3132 3133 3133 3134 3136 3138 3139